GW4719 Weather Reports


time (UTC)temp
C
wind
direction
speed
KPH
gust
KPH
rain 1hr
cm
rain 24hr
cm
rain mn
cm
humidity
%
barometer
mb
20260503192501 14 343 6.4 14.5 0.00 0.00 0.00 27 1018.2
20260503191956 14 286 11.3 14.5 0.00 0.00 0.00 26 1017.9
20260503191454 15 121 3.2 4.8 0.00 0.00 0.00 27 1018.2
20260503190950 15 287 11.3 16.1 0.00 0.00 0.00 27 1018.1
20260503190447 14 291 4.8 6.4 0.00 0.00 0.00 27 1018.2
20260503185944 14 342 4.8 11.3 0.00 0.00 0.00 28 1018.3
20260503185441 16 357 8.0 12.9 0.00 0.00 0.00 26 1018.3
20260503184940 15 231 6.4 12.9 0.00 0.00 0.00 27 1018.4
20260503184437 14 287 4.8 11.3 0.00 0.00 0.00 25 1018.6
20260503183933 15 257 9.7 12.9 0.00 0.00 0.00 26 1018.6
20260503183430 14 224 4.8 14.5 0.00 0.00 0.00 26 1018.6
20260503182927 14 201 8.0 14.5 0.00 0.00 0.00 26 1018.7
20260503182426 13 217 12.9 20.9 0.00 0.00 0.00 27 1018.6
20260503181923 13 325 9.7 12.9 0.00 0.00 0.00 28 1018.8
20260503181420 13 254 6.4 11.3 0.00 0.00 0.00 27 1019.1
20260503180916 15 271 9.7 11.3 0.00 0.00 0.00 27 1018.7
20260503180414 14 246 4.8 6.4 0.00 0.00 0.00 27 1018.7
20260503175911 13 291 4.8 9.7 0.00 0.00 0.00 30 1019.1
20260503175409 13 250 4.8 11.3 0.00 0.00 0.00 28 1019.2
20260503174904 13 291 4.8 9.7 0.00 0.00 0.00 30 1019.0
20260503174403 12 359 3.2 6.4 0.00 0.00 0.00 31 1018.7
20260503173902 13 353 6.4 12.9 0.00 0.00 0.00 29 1018.7
20260503173359 14 304 4.8 16.1 0.00 0.00 0.00 29 1019.1
20260503172855 13 273 9.7 16.1 0.00 0.00 0.00 29 1019.0
20260503172353 13 308 11.3 12.9 0.00 0.00 0.00 30 1019.3
20260503171849 12 262 9.7 17.7 0.00 0.00 0.00 29 1019.3
20260503171346 12 289 9.7 14.5 0.00 0.00 0.00 32 1019.4
20260503170844 12 332 11.3 14.5 0.00 0.00 0.00 33 1019.4
20260503170340 12 320 8.0 9.7 0.00 0.00 0.00 33 1019.5
20260503150732 8 271 3.2 9.7 0.00 0.00 0.00 42 1020.3
20260503150228 8 307 4.8 11.3 0.00 0.00 0.00 45 1020.3
20260503140153 7 15 9.7 12.9 0.00 0.00 0.00 46 1020.4
20260503131122 6 20 11.3 12.9 0.00 0.00 0.00 50 1020.2
20260503130620 6 4 4.8 9.7 0.00 0.00 0.00 51 1020.2
20260503130117 6 269 6.4 11.3 0.00 0.00 0.00 50 1020.4
20260503110510 3 66 1.6 1.6 0.00 0.00 0.00 64 1019.2
20260503090355 3 12 1.6 3.2 0.00 0.00 0.00 68 1018.1
20260503081317 4 344 3.2 4.8 0.00 0.00 0.00 62 1017.6
20260503080813 4 352 4.8 4.8 0.00 0.00 0.00 63 1017.4
20260503080311 3 347 1.6 3.2 0.00 0.00 0.00 63 1017.5
20260503072747 4 13 3.2 4.8 0.00 0.00 0.00 62 1017.3
20260503072244 4 338 3.2 11.3 0.00 0.00 0.00 62 1017.4
20260503071740 4 1 1.6 3.2 0.00 0.00 0.00 62 1017.1
20260503071237 4 336 0.0 1.6 0.00 0.00 0.00 63 1017.2
20260503070733 4 342 1.6 6.4 0.00 0.00 0.00 62 1017.1
20260503070232 4 5 1.6 6.4 0.00 0.00 0.00 63 1017.0
20260503060150 4 112 1.6 1.6 0.00 0.00 0.00 72 1017.1
20260503054637 4 323 0.0 1.6 0.00 0.00 0.00 72 1017.0
20260503054135 4 323 0.0 1.6 0.00 0.00 0.00 73 1017.1
20260503053633 4 307 1.6 3.2 0.00 0.00 0.00 73 1016.8
20260503053131 4 307 0.0 1.6 0.00 0.00 0.00 72 1017.1
20260503052627 4 307 1.6 3.2 0.00 0.00 0.00 72 1016.8
20260503052124 4 307 3.2 3.2 0.00 0.00 0.00 72 1017.0
20260503051619 4 307 1.6 1.6 0.00 0.00 0.00 72 1017.2
20260503051117 4 307 3.2 3.2 0.00 0.00 0.00 71 1016.8
20260503050613 4 307 1.6 3.2 0.00 0.00 0.00 71 1017.0
20260503050110 4 307 1.6 3.2 0.00 0.00 0.00 69 1016.8
20260503045607 4 307 1.6 1.6 0.00 0.00 0.00 68 1017.2
20260503045104 4 307 0.0 1.6 0.00 0.00 0.00 68 1017.1
20260503044601 4 307 3.2 3.2 0.00 0.00 0.00 68 1017.1
20260503044059 5 307 1.6 1.6 0.00 0.00 0.00 68 1017.2
20260503043554 5 307 0.0 0.0 0.00 0.00 0.00 66 1017.3
20260503043051 5 307 0.0 0.0 0.00 0.00 0.00 65 1017.0
20260503042548 5 307 0.0 1.6 0.00 0.00 0.00 64 1017.4
20260503042045 5 307 0.0 0.0 0.00 0.00 0.00 64 1017.0
20260503041542 5 307 0.0 1.6 0.00 0.00 0.00 63 1017.2
20260503041039 5 307 1.6 1.6 0.00 0.00 0.00 62 1017.2
20260503040537 5 307 6.4 9.7 0.00 0.00 0.00 62 1017.1
20260503040034 5 355 3.2 3.2 0.00 0.00 0.00 63 1017.3
20260503035530 5 355 1.6 3.2 0.00 0.00 0.00 62 1017.2
20260503035028 5 355 1.6 4.8 0.00 0.00 0.00 62 1017.1
20260503034525 5 355 0.0 4.8 0.00 0.00 0.00 61 1017.2
20260503034022 5 355 1.6 3.2 0.00 0.00 0.00 60 1017.1
20260503033519 5 355 1.6 1.6 0.00 0.00 0.00 60 1017.1
20260503033018 5 355 1.6 1.6 0.00 0.00 0.00 60 1017.2
20260503032515 6 355 1.6 3.2 0.00 0.00 0.00 59 1017.2
20260503032013 5 355 1.6 3.2 0.00 0.00 0.00 59 1017.2
20260503031511 5 355 1.6 1.6 0.00 0.00 0.00 60 1016.7
20260503031007 6 355 1.6 1.6 0.00 0.00 0.00 59 1017.1
20260503030503 6 355 3.2 6.4 0.00 0.00 0.00 56 1017.1
20260503030000 6 335 4.8 9.7 0.00 0.00 0.00 56 1017.3
20260503025457 6 300 6.4 11.3 0.00 0.00 0.00 55 1017.3
20260503024955 6 305 3.2 6.4 0.00 0.00 0.00 55 1017.3
20260503024451 6 313 3.2 6.4 0.00 0.00 0.00 54 1017.3
20260503023948 6 284 6.4 11.3 0.00 0.00 0.00 54 1017.0
20260503023445 6 310 4.8 4.8 0.00 0.00 0.00 54 1017.1
20260503022942 6 314 3.2 3.2 0.00 0.00 0.00 52 1017.3
20260503022437 6 314 3.2 4.8 0.00 0.00 0.00 52 1017.0
20260503021933 6 312 3.2 9.7 0.00 0.00 0.00 51 1016.8
20260503021430 6 313 6.4 6.4 0.00 0.00 0.00 51 1016.8
20260503020927 6 282 4.8 4.8 0.00 0.00 0.00 51 1017.0
20260503020420 7 280 4.8 4.8 0.00 0.00 0.00 50 1016.7
20260503015915 7 279 1.6 1.6 0.00 0.00 0.00 48 1017.0
20260503015413 7 279 3.2 6.4 0.00 0.00 0.00 47 1016.8
20260503014908 7 282 3.2 4.8 0.00 0.00 0.00 48 1016.7
20260503014406 7 281 4.8 6.4 0.00 0.00 0.00 48 1016.8
20260503013904 7 328 3.2 9.7 0.00 0.00 0.00 48 1016.8
20260503013401 7 250 6.4 9.7 0.00 0.00 0.00 46 1016.7
20260503012858 7 316 3.2 4.8 0.00 0.00 0.00 48 1016.6
20260503012356 7 316 1.6 1.6 0.00 0.00 0.00 47 1016.6
20260503011852 7 316 1.6 3.2 0.00 0.00 0.00 46 1016.5
20260503011349 7 316 4.8 6.4 0.00 0.00 0.00 45 1016.4
20260503010845 8 296 3.2 4.8 0.00 0.00 0.00 44 1016.3
20260503010342 8 295 8.0 12.9 0.00 0.00 0.00 44 1016.5
20260503005839 8 261 1.6 9.7 0.00 0.00 0.00 43 1016.2
20260503005337 8 266 3.2 4.8 0.00 0.00 0.00 43 1016.2
20260503004833 8 252 4.8 6.4 0.00 0.00 0.00 42 1016.2
20260503004331 8 252 4.8 6.4 0.00 0.00 0.00 42 1015.9
20260503003828 8 247 4.8 9.7 0.00 0.00 0.00 41 1015.9
20260503003324 8 250 6.4 9.7 0.00 0.00 0.00 41 1015.9
20260503002821 8 256 6.4 9.7 0.00 0.00 0.00 43 1015.7
20260503002318 8 283 3.2 9.7 0.00 0.00 0.00 42 1015.8
20260503001814 8 300 6.4 11.3 0.00 0.00 0.00 42 1015.9
20260503001311 8 297 4.8 9.7 0.00 0.00 0.00 43 1015.8
20260503000809 8 307 3.2 11.3 0.00 0.00 0.00 42 1015.8
20260503000306 8 314 11.3 16.1 0.00 0.00 0.00 42 1015.7
20260502235803 8 280 3.2 4.8 0.00 0.00 0.00 43 1015.5
20260502235300 8 279 1.6 6.4 0.00 0.00 0.00 41 1015.6
20260502234756 9 296 9.7 16.1 0.00 0.00 0.00 40 1015.4
20260502234253 9 263 8.0 12.9 0.00 0.00 0.00 39 1015.3
20260502233749 9 257 14.5 20.9 0.00 0.00 0.00 39 1015.2
20260502233246 9 271 4.8 4.8 0.00 0.00 0.00 40 1015.1
20260502232742 9 306 11.3 16.1 0.00 0.00 0.00 38 1015.1
20260502232239 9 254 8.0 11.3 0.00 0.00 0.00 38 1015.2
20260502231736 9 275 6.4 11.3 0.00 0.00 0.00 38 1015.2
20260502231234 10 287 14.5 16.1 0.00 0.00 0.00 38 1015.1
20260502230732 10 289 9.7 12.9 0.00 0.00 0.00 38 1015.2
20260502230230 9 263 3.2 4.8 0.00 0.00 0.00 39 1015.1
20260502225726 9 302 8.0 14.5 0.00 0.00 0.00 38 1015.3
20260502225223 10 304 9.7 12.9 0.00 0.00 0.00 37 1015.2
20260502224719 10 293 6.4 12.9 0.00 0.00 0.00 39 1015.0
20260502224216 10 274 9.7 20.9 0.00 0.00 0.00 38 1015.0
20260502223714 10 274 3.2 4.8 0.00 0.00 0.00 41 1015.1
20260502223212 10 280 8.0 22.5 0.00 0.00 0.00 38 1015.0
20260502222709 10 285 8.0 17.7 0.00 0.00 0.00 38 1015.1
20260502222206 10 270 4.8 6.4 0.00 0.00 0.00 40 1015.0
20260502221701 10 296 11.3 20.9 0.00 0.00 0.00 39 1014.7
20260502221159 10 291 9.7 11.3 0.00 0.00 0.00 39 1014.8
20260502220655 10 300 9.7 20.9 0.00 0.00 0.00 38 1014.7
20260502220151 10 276 8.0 14.5 0.00 0.00 0.00 39 1014.6
20260502215648 10 286 9.7 25.7 0.00 0.00 0.00 38 1014.6
20260502215145 10 305 6.4 9.7 0.00 0.00 0.00 41 1014.5
20260502214642 10 273 9.7 20.9 0.00 0.00 0.00 38 1014.7
20260502214139 10 323 11.3 16.1 0.00 0.00 0.00 39 1014.7
20260502213637 10 327 4.8 12.9 0.00 0.00 0.00 40 1014.7
20260502213134 11 335 11.3 16.1 0.00 0.00 0.00 38 1014.4
20260502212627 11 298 6.4 6.4 0.00 0.00 0.00 38 1014.7
20260502212125 11 313 8.0 12.9 0.00 0.00 0.00 38 1014.5
20260502211620 10 302 6.4 9.7 0.00 0.00 0.00 41 1014.3
20260502211117 10 300 9.7 16.1 0.00 0.00 0.00 39 1014.6
20260502210615 11 240 9.7 16.1 0.00 0.00 0.00 38 1014.6
20260502210112 12 285 8.0 14.5 0.00 0.00 0.00 38 1014.6
20260502205608 12 338 4.8 9.7 0.00 0.00 0.00 37 1014.6
20260502205105 12 310 3.2 9.7 0.00 0.00 0.00 37 1014.6
20260502204602 12 336 6.4 6.4 0.00 0.00 0.00 39 1014.6
20260502204100 12 308 8.0 16.1 0.00 0.00 0.00 36 1014.5
20260502203556 13 283 16.1 17.7 0.00 0.00 0.00 35 1014.4
20260502203054 12 265 9.7 12.9 0.00 0.00 0.00 36 1014.6
20260502202549 12 334 9.7 22.5 0.00 0.00 0.00 35 1014.7
20260502202048 12 310 8.0 16.1 0.00 0.00 0.00 37 1014.8
20260502201543 12 317 19.3 24.1 0.00 0.00 0.00 35 1014.5
20260502201040 12 307 9.7 20.9 0.00 0.00 0.00 38 1014.7
20260502200536 12 339 14.5 24.1 0.00 0.00 0.00 37 1014.6
20260502200034 13 316 9.7 14.5 0.00 0.00 0.00 35 1014.5
20260502195531 12 313 6.4 9.7 0.00 0.00 0.00 39 1014.6
20260502195027 12 315 11.3 16.1 0.00 0.00 0.00 37 1014.7
20260502194524 13 300 12.9 20.9 0.00 0.00 0.00 38 1014.8
20260502194020 14 300 11.3 16.1 0.00 0.00 0.00 38 1014.6
20260502193518 14 283 8.0 17.7 0.00 0.00 0.00 34 1015.0
20260502193014 13 290 8.0 17.7 0.00 0.00 0.00 36 1015.0